Regional Weather Roundup
Issued by NWS

Home | Current Version | Previous Version | Graphics & Text | Print | Product List | Glossary On
Versions: 1 2 3 4 5 6 7 8 9 10 11 12 13 14 15 16 17 18 19 20 21 22 23 24 25 26 27 28 29 30 31 32 33 34 35 36 37 38 39 40 41 42 43 44 45 46 47 48 49 50
000
ASUS43 KFSD 050902
RWRSD

WEATHER ROUNDUP FOR SOUTH DAKOTA
NATIONAL WEATHER SERVICE SIOUX FALLS SD
400 AM CDT SAT SEP 05 2015

NOTE: "FAIR" INDICATES FEW OR NO CLOUDS BELOW 12,000 FEET WITH NO
SIGNIFICANT WEATHER AND/OR OBSTRUCTIONS TO VISIBILITY.


SDZ001>005-009-010-012>017-051000-
NORTHWEST AND NORTH CENTRAL SOUTH DAKOTA

CITY           SKY/WX    TMP DP  RH WIND       PRES   REMARKS
BUFFALO          N/A     64  60  87 NE16      29.77F
FAITH            N/A     73  63  70 SE9       29.79S
MOBRIDGE       PTCLDY    71  71 100 E7        29.77F
$$

SDZ012>016-024>037-041>051-057-063-072>074-051000-
SOUTHWEST AND SOUTH CENTRAL SOUTH DAKOTA

CITY           SKY/WX    TMP DP  RH WIND       PRES   REMARKS
RAPID CTY ARPT CLOUDY    67  60  78 SE7       29.81R
PIERRE         MOCLDY    70  67  90 SE8       29.75S
CUSTER         CLOUDY    65  47  52 W9        29.98R
PHILIP         MOCLDY    66  63  90 E7        29.77R
PINE RIDGE     CLOUDY    69  55  60 CALM      29.82S
WINNER         FAIR      74  62  66 S7        29.78S
$$

SDZ004>011-016>023-039-040-051000-
NORTHEAST SOUTH DAKOTA

CITY           SKY/WX    TMP DP  RH WIND       PRES   REMARKS
ABERDEEN       CLEAR     68  66  93 NE7       29.80F FOG
WATERTOWN      PTCLDY    72  68  87 S9        29.84S
BROOKINGS      PTCLDY    72  66  83 SE9       29.87S
$$

SDZ017-020-022-023-036>040-048>070-051000-
SOUTHEAST SOUTH DAKOTA

CITY           SKY/WX    TMP DP  RH WIND       PRES   REMARKS
SIOUX FALLS    PTCLDY    73  67  81 S12       29.85S
HURON          PTCLDY    72  69  90 SE9       29.78S
CHAMBERLAIN    PTCLDY    69  68  97 E5        29.78S
MITCHELL       CLEAR     71  69  93 SE6       29.79F
YANKTON        CLEAR     73  66  78 S14       29.80F
$$

ABBREVIATIONS USED IN REMARKS
   TC - TEMPERATURE IN CELSIUS
  WCI - WIND CHILL INDEX
   HX - HEAT INDEX
  VSB - VISIBILITY




USA.gov is the U.S. government's official web portal to all federal, state and local government web resources and services.